When you browse on this site, cookies collect data to enhance your experience and personalize the content and advertising you see.
Visit our Privacy Policy to learn more. By continuing to use the site, you agree to this use of cookies and data.
  • In Deutschland
  • Länderverzeichnis
  • Für 7 Tage
  • Wassertemperatur
  • Wetterkarte
  • Widgets
  • user-avatar
    Anmelden

    Stündliche Wetter Zaranj

    Heute, 27 Januar, Montag

    Zeit Temperatur Niederschläge Wind Luftdruck Luftfeuchtigkeit
    00:00 +7°C° 0 mm 4 m/S 720 mmHg 67%
    01:00 +7°C° 0 mm 4 m/S 719 mmHg 67%
    02:00 +7°C° 0 mm 5 m/S 719 mmHg 66%
    03:00 +7°C° 0 mm 5 m/S 719 mmHg 66%
    04:00 +7°C° 0 mm 5 m/S 720 mmHg 66%
    05:00 +7°C° 0 mm 6 m/S 720 mmHg 65%
    06:00 +5°C° 0 mm 6 m/S 720 mmHg 64%
    07:00 +5°C° 0 mm 7 m/S 721 mmHg 64%
    08:00 +6°C° 0 mm 7 m/S 721 mmHg 58%
    09:00 +7°C° 0 mm 8 m/S 722 mmHg 53%
    10:00 +8°C° 0 mm 9 m/S 722 mmHg 48%
    11:00 +10°C° 0 mm 9 m/S 722 mmHg 46%
    12:00 +11°C° 0 mm 10 m/S 721 mmHg 43%
    13:00 +11°C° 0 mm 10 m/S 721 mmHg 41%
    14:00 +11°C° 0 mm 10 m/S 721 mmHg 39%
    15:00 +11°C° 0 mm 10 m/S 720 mmHg 37%
    16:00 +11°C° 0 mm 10 m/S 720 mmHg 35%
    17:00 +9°C° 0 mm 10 m/S 720 mmHg 38%
    18:00 +8°C° 0 mm 10 m/S 721 mmHg 41%
    19:00 +7°C° 0 mm 10 m/S 721 mmHg 44%
    20:00 +7°C° 0 mm 11 m/S 721 mmHg 46%
    21:00 +6°C° 0 mm 11 m/S 721 mmHg 48%
    22:00 +5°C° 0 mm 12 m/S 721 mmHg 49%
    23:00 +4°C° 0 mm 12 m/S 721 mmHg 51%

    Morgen, 28 Januar, Dienstag

    Zeit Temperatur Niederschläge Wind Luftdruck Luftfeuchtigkeit
    00:00 +4°C° 0 mm 12 m/S 721 mmHg 53%
    01:00 +4°C° 0 mm 11 m/S 721 mmHg 54%
    02:00 +3°C° 0 mm 11 m/S 721 mmHg 55%
    03:00 +3°C° 0 mm 11 m/S 721 mmHg 55%
    04:00 +3°C° 0 mm 10 m/S 721 mmHg 56%
    05:00 +2°C° 0 mm 10 m/S 721 mmHg 56%
    06:00 +2°C° 0 mm 10 m/S 721 mmHg 57%
    07:00 +2°C° 0 mm 10 m/S 722 mmHg 57%
    08:00 +3°C° 0 mm 10 m/S 722 mmHg 54%
    09:00 +4°C° 0 mm 11 m/S 722 mmHg 51%
    10:00 +5°C° 0 mm 12 m/S 723 mmHg 48%
    11:00 +5°C° 0 mm 12 m/S 722 mmHg 45%
    12:00 +7°C° 0 mm 11 m/S 722 mmHg 43%
    13:00 +8°C° 0 mm 11 m/S 721 mmHg 40%
    14:00 +8°C° 0 mm 11 m/S 721 mmHg 40%
    15:00 +9°C° 0 mm 10 m/S 720 mmHg 39%
    16:00 +9°C° 0 mm 10 m/S 720 mmHg 38%
    17:00 +8°C° 0 mm 10 m/S 721 mmHg 41%
    18:00 +8°C° 0 mm 9 m/S 721 mmHg 43%
    19:00 +7°C° 0 mm 9 m/S 721 mmHg 46%
    20:00 +7°C° 0 mm 9 m/S 721 mmHg 46%
    21:00 +6°C° 0 mm 9 m/S 722 mmHg 46%
    22:00 +6°C° 0 mm 8 m/S 722 mmHg 46%
    23:00 +6°C° 0 mm 8 m/S 722 mmHg 47%

    übermorgen, 29 Januar, Mittwoch

    Zeit Temperatur Niederschläge Wind Luftdruck Luftfeuchtigkeit
    00:00 +5°C° 0 mm 7 m/S 722 mmHg 48%
    01:00 +5°C° 0 mm 7 m/S 722 mmHg 48%
    02:00 +5°C° 0 mm 6 m/S 721 mmHg 50%
    03:00 +4°C° 0 mm 6 m/S 721 mmHg 51%
    04:00 +5°C° 0 mm 5 m/S 721 mmHg 53%
    05:00 +5°C° 0 mm 5 m/S 721 mmHg 54%
    06:00 +5°C° 0 mm 5 m/S 722 mmHg 55%
    07:00 +3°C° 0 mm 5 m/S 722 mmHg 56%
    08:00 +6°C° 0 mm 5 m/S 723 mmHg 51%
    09:00 +7°C° 0 mm 5 m/S 723 mmHg 46%
    10:00 +8°C° 0 mm 5 m/S 723 mmHg 41%
    11:00 +10°C° 0 mm 4 m/S 723 mmHg 38%
    12:00 +11°C° 0 mm 4 m/S 722 mmHg 35%
    13:00 +12°C° 0 mm 3 m/S 722 mmHg 32%
    14:00 +12°C° 0 mm 3 m/S 721 mmHg 32%
    15:00 +12°C° 0 mm 3 m/S 721 mmHg 31%
    16:00 +13°C° 0 mm 2 m/S 721 mmHg 31%
    17:00 +12°C° 0 mm 2 m/S 721 mmHg 34%
    18:00 +10°C° 0 mm 2 m/S 721 mmHg 37%
    19:00 +10°C° 0 mm 2 m/S 722 mmHg 40%
    20:00 +9°C° 0 mm 2 m/S 722 mmHg 41%
    21:00 +9°C° 0 mm 2 m/S 722 mmHg 41%
    22:00 +9°C° 0 mm 2 m/S 722 mmHg 42%
    23:00 +8°C° 0 mm 2 m/S 721 mmHg 43%

    30 Januar, Donnerstag

    Zeit Temperatur Niederschläge Wind Luftdruck Luftfeuchtigkeit
    00:00 +9°C° 0 mm 1 m/S 721 mmHg 45%
    01:00 +8°C° 0 mm 1 m/S 721 mmHg 47%
    02:00 +8°C° 0 mm 1 m/S 721 mmHg 48%
    03:00 +7°C° 0 mm 2 m/S 720 mmHg 48%
    04:00 +7°C° 0 mm 2 m/S 720 mmHg 49%
    05:00 +6°C° 0 mm 2 m/S 720 mmHg 51%
    06:00 +6°C° 0 mm 2 m/S 720 mmHg 53%
    07:00 +6°C° 0 mm 2 m/S 721 mmHg 55%
    08:00 +7°C° 0 mm 2 m/S 721 mmHg 51%
    09:00 +8°C° 0 mm 2 m/S 721 mmHg 46%
    10:00 +10°C° 0 mm 1 m/S 721 mmHg 42%
    11:00 +11°C° 0 mm 1 m/S 720 mmHg 38%
    12:00 +12°C° 0 mm 1 m/S 720 mmHg 35%
    13:00 +13°C° 0 mm 1 m/S 719 mmHg 31%
    14:00 +14°C° 0 mm 1 m/S 719 mmHg 31%
    15:00 +14°C° 0 mm 2 m/S 719 mmHg 30%
    16:00 +14°C° 0 mm 2 m/S 718 mmHg 30%
    17:00 +13°C° 0 mm 2 m/S 719 mmHg 34%
    18:00 +13°C° 0 mm 2 m/S 719 mmHg 39%
    19:00 +12°C° 0 mm 2 m/S 719 mmHg 44%
    20:00 +12°C° 0 mm 2 m/S 719 mmHg 45%
    21:00 +10°C° 0 mm 2 m/S 719 mmHg 46%
    22:00 +10°C° 0 mm 2 m/S 720 mmHg 47%
    23:00 +10°C° 0 mm 1 m/S 720 mmHg 48%

    31 Januar, Freitag

    Zeit Temperatur Niederschläge Wind Luftdruck Luftfeuchtigkeit
    00:00 +10°C° 0 mm 1 m/S 720 mmHg 49%
    01:00 +10°C° 0 mm 1 m/S 720 mmHg 49%
    02:00 +9°C° 0 mm 1 m/S 719 mmHg 51%
    03:00 +9°C° 0 mm 1 m/S 719 mmHg 52%
    04:00 +8°C° 0 mm 1 m/S 719 mmHg 53%
    05:00 +8°C° 0 mm 1 m/S 719 mmHg 54%
    06:00 +8°C° 0 mm 1 m/S 720 mmHg 54%
    07:00 +7°C° 0 mm 0 m/S 720 mmHg 55%
    08:00 +10°C° 0 mm 1 m/S 721 mmHg 49%
    09:00 +11°C° 0 mm 1 m/S 721 mmHg 44%
    10:00 +13°C° 0 mm 1 m/S 722 mmHg 38%
    11:00 +14°C° 0 mm 1 m/S 721 mmHg 36%
    12:00 +15°C° 0 mm 1 m/S 721 mmHg 34%
    13:00 +16°C° 0 mm 1 m/S 720 mmHg 31%
    14:00 +16°C° 0 mm 1 m/S 720 mmHg 30%
    15:00 +16°C° 0 mm 1 m/S 720 mmHg 29%
    16:00 +18°C° 0 mm 1 m/S 719 mmHg 28%
    17:00 +16°C° 0 mm 1 m/S 720 mmHg 31%
    18:00 +15°C° 0 mm 2 m/S 720 mmHg 34%
    19:00 +13°C° 0 mm 3 m/S 720 mmHg 38%
    20:00 +12°C° 0 mm 3 m/S 720 mmHg 40%
    21:00 +12°C° 0 mm 3 m/S 720 mmHg 42%
    22:00 +11°C° 0 mm 3 m/S 720 mmHg 44%
    23:00 +11°C° 0 mm 3 m/S 720 mmHg 45%

    1 Februar, Samstag

    Zeit Temperatur Niederschläge Wind Luftdruck Luftfeuchtigkeit
    00:00 +10°C° 0 mm 2 m/S 720 mmHg 46%
    01:00 +10°C° 0 mm 2 m/S 720 mmHg 48%
    02:00 +10°C° 0 mm 2 m/S 720 mmHg 48%
    03:00 +9°C° 0 mm 2 m/S 720 mmHg 49%
    04:00 +9°C° 0 mm 2 m/S 720 mmHg 50%
    05:00 +9°C° 0 mm 2 m/S 720 mmHg 50%
    06:00 +8°C° 0 mm 2 m/S 721 mmHg 51%
    07:00 +8°C° 0 mm 2 m/S 721 mmHg 51%
    08:00 +10°C° 0 mm 3 m/S 721 mmHg 46%
    09:00 +11°C° 0 mm 3 m/S 722 mmHg 41%
    10:00 +13°C° 0 mm 3 m/S 722 mmHg 36%
    11:00 +14°C° 0 mm 3 m/S 722 mmHg 33%
    12:00 +16°C° 0 mm 3 m/S 721 mmHg 30%
    13:00 +17°C° 0 mm 4 m/S 721 mmHg 26%
    14:00 +17°C° 0 mm 4 m/S 720 mmHg 26%
    15:00 +18°C° 0 mm 4 m/S 720 mmHg 25%
    16:00 +18°C° 0 mm 4 m/S 720 mmHg 24%
    17:00 +17°C° 0 mm 4 m/S 720 mmHg 27%
    18:00 +15°C° 0 mm 4 m/S 720 mmHg 29%
    19:00 +14°C° 0 mm 3 m/S 720 mmHg 32%
    20:00 +13°C° 0 mm 4 m/S 720 mmHg 34%
    21:00 +12°C° 0 mm 4 m/S 720 mmHg 36%
    22:00 +12°C° 0 mm 4 m/S 720 mmHg 38%
    23:00 +11°C° 0 mm 4 m/S 720 mmHg 39%
    Mehr zeigen